View from above orbital plane
|
View from above satellite
|
Ground track
|
The orbit data is extracted from the following two-line orbital elements,
1 25634U 99008A 21015.79002174 -.00000010 00000-0 14781-4 0 9992
2 25634 98.4371 50.8444 0010658 28.0377 332.1372 14.19386499134098
Epoch (UTC): | 15 January 2021 18:57:37 |
Eccentricity: | 0.0010658 |
inclination: | 98.4371° |
perigee height: | 820 km |
apogee height: | 835 km |
right ascension of ascending node: | 50.8444° |
argument of perigee: | 28.0377° |
revolutions per day: | 14.19386499 |
mean anomaly at epoch: | 332.1372° |
orbit number at epoch: | 13409 |
The dashed part of the orbit path shows where the satellite is in the earth's shadow,
|
|